Regional Weather Roundup
Issued by NWS

Home | Current Version | Previous Version | Text Only | Print | Product List | Glossary On
Versions: 1 2 3 4 5 6 7 8 9 10 11 12 13 14 15 16 17 18 19 20 21 22 23 24 25 26 27 28 29 30 31 32 33 34 35 36 37 38 39 40 41 42 43 44 45 46 47 48 49 50
000
ASUS43 KMKX 222221
RWRWI

WISCONSIN REGIONAL WEATHER ROUNDUP
NATIONAL WEATHER SERVICE MILWAUKEE/SULLIVAN WI
500 PM CDT FRI AUG 22 2014

NOTE: "FAIR" INDICATES FEW OR NO CLOUDS BELOW 12,000 FEET WITH NO
SIGNIFICANT WEATHER AND/OR OBSTRUCTIONS TO VISIBILITY.

WIZ001-002-006>008-014>016-023>028-222300-
NORTHWEST WISCONSIN

CITY           SKY/WX    TMP DP  RH WIND       PRES   REMARKS
SUPERIOR ARPT  CLOUDY    63  61  92 NE7       30.01R
ASHLAND        CLOUDY    68  63  84 N7        30.00S
HAYWARD        CLOUDY    72  68  87 NE8       29.99R
SIREN          CLOUDY    73  68  84 NE6       29.99R
RICE LAKE      CLOUDY    74  69  82 NW6       29.99R
LADYSMITH      MOSUNNY   79  70  74 N7        29.98S HX  81
EAU CLAIRE     MOSUNNY   85  71  63 W8        29.92F HX  90
MENOMONIE      PTCLDY    83  69  62 W9        29.95R HX  87
NEW RICHMOND   CLOUDY    74  69  84 N5        29.98S
OSCEOLA        CLOUDY    74  71  91 NW3       30.00S
$$

WIZ003>005-009-010-017-018-222300-
NORTH CENTRAL WISCONSIN

CITY           SKY/WX    TMP DP  RH WIND       PRES   REMARKS
WOODRUFF       PTSUNNY   77  72  84 CALM      29.99S
RHINELANDER    CLOUDY    72  69  90 S5        30.00S
EAGLE RIVER    DRIZZLE   72  71  97 CALM      29.99S
LAND O LAKES   DRIZZLE   71  69  92 SE3       30.01S
PHILLIPS       CLOUDY    74  70  87 N3        29.98S
TOMAHAWK       CLOUDY    73  69  88 NE3       29.99R FOG
MEDFORD        SUNNY     79  73  80 CALM      29.96R HX  82
MERRILL        CLOUDY    73  72  98 NE3       29.97S FOG
$$

WIZ029-030-035-036-043>047-222300-
CENTRAL WISCONSIN

CITY           SKY/WX    TMP DP  RH WIND       PRES   REMARKS
WAUSAU         MOSUNNY   81  73  76 NW8       29.94S HX  86
MOSINEE        MOSUNNY   82  73  74 W6        29.96S HX  88
MARSHFIELD     PTSUNNY   83  72  69 W3        29.95R HX  88
STEVENS POINT  SUNNY     83  72  67 W9        29.95R HX  89
WAUPACA        CLOUDY    82  72  71 N13G18    29.94R HX  86
WAUTOMA        MOSUNNY   90  74  59 SW5       29.92S HX  99
WISC RAPIDS    MOSUNNY   86  73  65 W9        29.95R HX  93
CAMP DOUGLAS   MOSUNNY   85  81  87 NW3       29.93R HX 100
$$

WIZ011>013-019>022-031-037>040-048>050-222300-
NORTHEAST WISCONSIN

CITY           SKY/WX    TMP DP  RH WIND       PRES   REMARKS
ANTIGO         CLOUDY    72  70  93 E5        29.99S FOG
STURGEON BAY   MOSUNNY   73  70  88 E6        29.99R
GREEN BAY      PTSUNNY   82  74  76 VRB6      29.95R HX  88
MANITOWOC      PTSUNNY   71  69  93 E9        29.97R
APPLETON       NOT AVBL
CLINTONVILLE   MOSUNNY   82  72  69 SE6       29.94R HX  87
OSHKOSH        SUNNY     84  74  71 E8        29.93S HX  91
$$

WIZ032>034-041-042-053>061-222300-
SOUTHWEST WISCONSIN

CITY           SKY/WX    TMP DP  RH WIND       PRES   REMARKS
LA CROSSE      MOSUNNY   85  74  69 SE3       29.91S HX  92
SPARTA         MOSUNNY   85  72  63 W7        29.93F HX  91
VIROQUA        MOCLDY    85  75  72 NW5       29.95S HX  93
BOSCOBEL       SUNNY     92  72  51 CALM      29.90F HX  99
PRAIRIE DU CHI MOSUNNY   88  71  57 CALM      29.90F HX  93
PLATTEVILLE    FAIR      86  76  72 W5        29.94S HX  96
$$

WIZ056-057-062-063-064-067-068-222300-
SOUTH CENTRAL WISCONSIN

CITY           SKY/WX    TMP DP  RH WIND       PRES   REMARKS
BARABOO/DELLS  SUNNY     89  69  52 SW5       29.93R HX  93
LONE ROCK      MOSUNNY   92  74  55 NW5       29.91S HX 101
WATERTOWN      PTSUNNY   87  74  66 NW3       29.92S HX  95
MADISON        MOSUNNY   88  71  57 SW3       29.92S HX  94
MIDDLETON      FAIR     N/A N/A N/A W3        29.93S
MONROE         MOSUNNY   86  73  66 W6        29.94S HX  93
JANESVILLE     PTSUNNY   88  72  58 NW3       29.92R HX  94
$$

WIZ051-052-058>065-066-070>072-222300-
SOUTHEAST WISCONSIN

CITY           SKY/WX    TMP DP  RH WIND       PRES   REMARKS
MILWAUKEE      PTSUNNY   74  70  87 NE7       29.95R
WAUKESHA       PTSUNNY   81  72  74 E10       29.95R HX  84
MILWAUKEE/TIMM MOSUNNY   82  70  65 E8        29.95R HX  86
RACINE         SUNNY     80  72  76 E9        29.95R HX  84
BURLINGTON     MOSUNNY   85  73  66 CALM      29.93R HX  92
KENOSHA        MOSUNNY   80  73  79 E9        29.94R HX  84
FOND DU LAC    PTSUNNY   86  71  60 CALM      29.93S HX  91
SHEBOYGAN      SUNNY     77  70  79 E7        29.96R
WEST BEND      SUNNY     79  70  73 E7        29.95S HX  81
JUNEAU         SUNNY     86  69  56 CALM      29.94S HX  90
$$

LSZ147-162-222300-
LAKE SUPERIOR

STATION/POSITION TIME  TEMP    WIND        PRES    WAVE
                       AIR SEA DIR/SP/G            HT/PER
                 (UTC) (F)     (DEG/KT/KT) (MB)    (FT/S)
W MID LAKE BUOY  2150   58 58   30/ 12/ 14 1015.4F   2/ 3
DEVILS ISLAND    2200   60      50/  9/ 10 1016.3R
PORT WING        2140   60      30/  7/  9 1016.3S
SAXON HARBOR     2100   63     360/  5/  6 1015.9S
$$

LMZ867-665-643>646-222300-
LAKE MICHIGAN

STATION/POSITION TIME  TEMP    WIND        PRES    WAVE
                       AIR SEA DIR/SP/G            HT/PER
                 (UTC) (F)     (DEG/KT/KT) (MB)    (FT/S)
N MID LAKE BUOY  2150   69 67   40/  4/  4 1015.2R   0
NORTHPORT PIER   2100   67     100/  7/  8 1014.9S
SISTER BAY       2126   80     100/ 10/ 13   N/A
KEWAUNEE LAKESHO 2100   69     130/  1/  3 1013.9S
SHEBOYGAN LAKESH 2200   68 64  100/  5/  6 1014.7R
ATWATER BUOY     2200   70      50/  6/  8 1015.3R
MILWAUKEE LAKESH 2200   69      40/ 10/ 10   N/A
S MID LAKE BUOY  2150   72 72   60/  6/  6 1013.7S   0
KENOSHA   LAKESH 2200   78     100/  2/  4 1013.2R
$$

TC  - TEMPERATURE IN CELSIUS
VSB - VISIBILITY IN STATUTE MILES
WCI - WIND CHILL INDEX
HX  - HEAT INDEX



USA.gov is the U.S. government's official web portal to all federal, state and local government web resources and services.